This demonstration page uses our WeatherBlox Daily Observations layout. Learn more.

Left ArrowRight Arrow

44.31136, -96.79839

Hourly Observations for August 30, 2017

Temp ( °F °C ) Dew Point ( °F °C ) Humidity (%) Winds ( mph kmh ) Pressure ( in mb ) Visibility ( mi km ) Precip ( " mm )
12:56 am 00:56 Clear 62 16.7 58 14.4 86 86 SSW 3 6 30.11 1020 N/A 0.00 0.00
1:56 am 01:56 Clear 61 16.1 58 14.4 90 90 S 3 6 30.11 1020 N/A 0.00 0.00
2:56 am 02:56 Clear 60 15.6 58 14.4 93 93 Calm 30.11 1020 N/A 0.00 0.00
3:56 am 03:56 Clear 60 15.6 58 14.4 93 93 SE 3 6 30.11 1020 N/A 0.00 0.00
4:56 am 04:56 Clear 58 14.4 57 13.9 97 97 ESE 5 7 30.12 1020 N/A 0.00 0.00
5:56 am 05:56 Clear 57 13.9 56 13.3 96 96 Calm 30.13 1020 N/A 0.00 0.00
6:56 am 06:56 Sunny 57 13.9 55 12.8 93 93 SE 6 9 30.14 1021 N/A 0.00 0.00
7:56 am 07:56 Sunny 59 15 58 14.4 96 96 ESE 3 6 30.14 1021 N/A 0.00 0.00
8:56 am 08:56 Sunny 64 17.8 59 15 84 84 S 6 9 30.15 1021 N/A 0.00 0.00
9:56 am 09:56 Sunny 68 20 62 16.7 81 81 SSW 6 9 30.16 1021 N/A 0.00 0.00
10:56 am 10:56 Sunny 72 22.2 63 17.2 73 73 SSW 6 9 30.15 1021 N/A 0.00 0.00
11:56 am 11:56 Sunny 75 23.9 63 17.2 66 66 Calm 30.16 1021 N/A 0.00 0.00
12:56 pm 12:56 Sunny 76 24.4 64 17.8 67 67 NW 6 9 30.15 1021 N/A 0.00 0.00
1:56 pm 13:56 Sunny 77 25 63 17.2 62 62 Calm 30.15 1021 N/A 0.00 0.00
2:56 pm 14:56 Sunny 79 26.1 63 17.2 58 58 NE 6 9 30.14 1021 N/A 0.00 0.00
3:56 pm 15:56 Sunny 79 26.1 63 17.2 58 58 NE 6 9 30.13 1020 N/A 0.00 0.00
4:56 pm 16:56 Sunny 80 26.7 64 17.8 58 58 E 5 7 30.13 1020 N/A 0.00 0.00
5:56 pm 17:56 Sunny 79 26.1 64 17.8 60 60 Calm 30.12 1020 N/A 0.00 0.00
6:56 pm 18:56 Cloudy 78 25.6 66 18.9 67 67 ESE 6 9 30.12 1020 N/A 0.00 0.00
7:56 pm 19:56 Sunny 74 23.3 66 18.9 76 76 Calm 30.13 1020 N/A 0.00 0.00
8:56 pm 20:56 Clear 72 22.2 65 18.3 79 79 Calm 30.14 1021 N/A 0.00 0.00
9:56 pm 21:56 Partly Cloudy 70 21.1 65 18.3 84 84 ENE 3 6 30.15 1021 N/A 0.00 0.00
10:56 pm 22:56 Clear 71 21.7 64 17.8 79 79 E 8 13 30.15 1021 N/A 0.00 0.00
11:56 pm 23:56 Clear 68 20 64 17.8 87 87 E 8 13 30.15 1021 N/A 0.00 0.00

Powered by AerisWeather